Location: Home
(42.5358°N, 72.7383°W)
Time: 19:24:51
(UTC-04:00)

Envisat - Visible Passes

Search period start: 04 October 2023 00:00
Search period end: 14 October 2023 00:00
Orbit: 763 x 764 km, 98.2° (Epoch: 04 October)

Date Brightness Start Highest point End Pass type
(mag) Time Alt. Az. Time Alt. Az. Time Alt. Az.
04 Oct 5.5 03:14:25 10° NE 03:17:14 15° E 03:18:06 14° ESE visible
04 Oct 2.9 04:51:38 10° N 04:56:41 67° WNW 04:58:16 43° SW visible
05 Oct 3.5 04:14:28 10° NNE 04:19:29 56° E 04:20:29 47° SE visible
05 Oct 4.4 05:54:30 10° NNW 05:58:01 19° WNW 06:00:39 13° W visible
06 Oct 4.8 03:37:54 10° NE 03:42:04 25° E 03:42:42 25° ESE visible
06 Oct 3.4 05:16:27 10° N 05:21:09 39° WNW 05:22:52 30° WSW visible
07 Oct 5.8 03:03:05 10° ENE 03:04:27 11° E 03:04:55 11° E visible
07 Oct 2.8 04:38:59 10° NNE 04:44:05 86° WNW 04:45:05 59° SSW visible
07 Oct 4.8 06:20:29 10° NW 06:22:15 12° WNW 06:24:01 10° WNW visible
08 Oct 4.0 04:01:59 10° NNE 04:06:48 43° E 04:07:19 41° ESE visible
08 Oct 4.1 05:41:30 10° NNW 05:45:31 24° WNW 05:47:28 19° W visible
09 Oct 5.2 03:25:42 10° NE 03:29:20 19° E 03:29:32 19° E visible
09 Oct 3.1 05:03:41 10° N 05:08:36 51° WNW 05:09:41 43° WSW visible
10 Oct 3.1 04:26:21 10° NNE 04:31:27 74° ESE 04:31:54 68° SE visible
10 Oct 4.6 06:06:58 10° NNW 06:09:49 15° WNW 06:12:03 12° W visible
11 Oct 4.5 03:49:32 10° NNE 03:54:06 33° E 03:54:06 33° E visible
11 Oct 3.8 05:28:36 10° N 05:33:01 31° WNW 05:34:16 27° W visible
12 Oct 5.6 03:13:43 10° NE 03:16:19 15° E 03:16:19 15° E visible
12 Oct 2.9 04:50:57 10° N 04:56:00 66° WNW 04:56:28 62° WSW visible
13 Oct 3.5 04:13:47 10° NNE 04:18:40 56° E 04:18:40 56° E visible
13 Oct 4.3 05:53:49 10° NNW 05:57:20 19° WNW 05:58:50 17° W visible
